Hourly Data Report for January 05, 2022

OTTAWA INTL A
ONTARIO
Current Station Operator: NAVCAN

45°19'00.000" N
75°40'00.000" W
114.90 m
6106001
71628
YOW

Download Data

Hourly Data (January 2022)
Hourly Data Report for January 5, 2022
TIME
LST
Temp Definition
°C
Dew Point Definition
°C
Rel Hum Definition
%
Precip. Amount Definition
mm

Wind Dir Definition
10's deg

Wind Spd Definition
km/h
Visibility Definition
km
Stn Press Definition
kPa
Hmdx Definition


Wind Chill Definition


Weather Definition


00:00 -2.6 -5.7 80   14 9 24.1 100.15   -6 LegendNANA
01:00 -3.2 -5.8 82   11 12 24.1 100.00   -8 Cloudy
02:00 -3.7 -6.1 83   9 10 24.1 99.93   -8 LegendNANA
03:00 -3.7 -6.4 81   10 12 24.1 99.82   -8 LegendNANA
04:00 -4.4 -6.6 84   9 11 24.1 99.72   -9 Cloudy
05:00 -4.9 -6.7 87   8 9 24.1 99.58   -9 LegendNANA
06:00 -5.5 -7.1 88   8 13 24.1 99.45   -11 LegendNANA
07:00 -6.0 -7.7 88   7 13 24.1 99.37   -11 Mostly Cloudy
08:00 -6.4 -8.1 88   7 13 24.1 99.29   -12 LegendNANA
09:00 -6.2 -8.1 86   7 17 16.1 99.23   -12 LegendNANA
10:00 -4.9 -7.7 81   8 12 24.1 99.20   -10 Mostly Cloudy
11:00 -3.8 -7.2 77   8 11 24.1 99.10   -8 LegendNANA
12:00 -3.1 -6.8 76   9 12 24.1 98.98   -8 LegendNANA
13:00 -2.0 -6.5 72   11 15 24.1 98.84   -7 Cloudy
14:00 -0.5 -5.2 71   10 10 24.1 98.76   -4 LegendNANA
15:00 -0.4 -4.7 73   10 10 24.1 98.72   -4 LegendNANA
16:00 2.9 -3.3 64   17 14 24.1 98.67     Mostly Cloudy
17:00 2.5 -3.2 66   17 16 6.4 98.66     Snow
18:00 2.3 -2.2 72   18 14 24.1 98.62     LegendNANA
19:00 1.6 -0.8 84   17 12 24.1 98.61     Cloudy
20:00 1.1 -0.4 89   15 13 24.1 98.53     Rain
21:00 1.2 -0.4 89   19 15 24.1 98.52     LegendNANA
22:00 1.8 -3.2 69   21 44 24.1 98.50     Mostly Cloudy
23:00 0.9 -2.7 77   22 28 24.1 98.52     Snow

Notes on Data Quality.

Legend

  • E = Estimated
  • M = Missing
  • NA = Not Available*
  • [empty] = Indicates an unobserved value
Date modified: